Temperature
0 -0 -1 -2 -3 -4 -4 -5 -5 -6 -6 -6 -6 -6 -6 -6 -6 -6 -7 -7 -7 -7 -7 -7 -7 -6 -6 -4 -3 -2 -1 0 2 3 4 5 8 10 11 12 13 14 14
-0 -1 -2 -2 -3 -4 -5 -5 -6 -6 -7 -7 -7 -7 -7 -7 -7 -7 -7 -7 -7 -8 -8 -8 -8 -7 -7 -6 -4 -3 -2 -0 1 2 3 4 6 8 10 11 13 13 14
-1 -1 -2 -3 -3 -4 -5 -6 -6 -7 -7 -7 -7 -7 -7 -7 -7 -7 -8 -8 -8 -8 -9 -9 -9 -8 -7 -6 -5 -4 -3 -1 0 1 3 4 5 6 8 10 12 13 14
-1 -2 -2 -3 -4 -5 -5 -6 -7 -7 -7 -8 -8 -8 -8 -8 -7 -8 -8 -8 -9 -9 -9 -9 -9 -9 -8 -7 -6 -5 -3 -2 -0 1 2 3 4 5 7 9 11 12 13
-1 -2 -3 -3 -4 -5 -6 -7 -7 -8 -8 -8 -9 -9 -8 -8 -8 -8 -8 -9 -9 -9 -9 -10 -10 -9 -9 -8 -7 -5 -4 -2 -1 1 2 3 4 5 6 8 9 11 12
-1 -2 -3 -3 -4 -5 -6 -7 -8 -8 -9 -9 -9 -9 -9 -8 -8 -9 -9 -9 -9 -9 -10 -10 -10 -10 -9 -8 -7 -6 -4 -2 -1 1 2 3 3 4 5 7 8 10 12
-2 -2 -3 -4 -5 -5 -6 -7 -8 -9 -9 -9 -10 -10 -10 -9 -9 -9 -9 -9 -9 -9 -10 -10 -10 -10 -9 -9 -8 -6 -5 -3 -1 0 1 2 3 4 5 6 7 9 11
-2 -2 -3 -4 -5 -6 -7 -8 -9 -9 -10 -10 -11 -11 -11 -11 -10 -10 -9 -10 -10 -10 -10 -10 -10 -10 -9 -9 -8 -7 -6 -4 -2 -1 1 2 2 3 4 5 6 8 10
-2 -3 -3 -4 -5 -6 -7 -8 -9 -10 -10 -10 -11 -11 -11 -11 -11 -11 -10 -10 -10 -10 -10 -10 -10 -10 -9 -9 -8 -7 -6 -5 -4 -2 -0 1 2 3 4 4 6 7 9
-2 -3 -4 -4 -5 -7 -8 -8 -9 -10 -11 -11 -11 -11 -11 -12 -12 -12 -11 -11 -11 -11 -10 -10 -10 -10 -9 -9 -8 -7 -6 -5 -4 -3 -2 -0 1 2 3 4 5 6 8
-2 -3 -4 -5 -6 -7 -8 -9 -9 -10 -11 -11 -11 -11 -11 -11 -12 -12 -12 -11 -11 -11 -11 -10 -10 -10 -9 -9 -8 -7 -6 -5 -5 -3 -2 -1 0 1 3 3 4 6 7
-2 -3 -4 -5 -6 -7 -8 -9 -9 -10 -11 -11 -11 -11 -11 -12 -12 -12 -13 -12 -12 -12 -11 -11 -10 -10 -9 -9 -8 -8 -7 -6 -5 -4 -3 -2 -1 0 2 3 4 5 6
-2 -3 -4 -5 -6 -7 -8 -9 -9 -10 -10 -11 -11 -11 -11 -11 -11 -12 -12 -13 -13 -12 -11 -11 -10 -10 -10 -9 -8 -8 -7 -6 -5 -4 -3 -3 -2 -1 1 2 3 5 6
-2 -3 -4 -5 -6 -7 -8 -9 -9 -10 -10 -10 -10 -11 -11 -11 -11 -12 -12 -12 -13 -12 -12 -11 -10 -10 -10 -9 -9 -8 -8 -6 -6 -5 -4 -3 -2 -1 -0 1 2 4 5
-2 -3 -4 -5 -6 -7 -8 -9 -9 -9 -9 -10 -10 -10 -10 -10 -11 -11 -11 -12 -13 -13 -12 -11 -11 -10 -10 -10 -9 -9 -8 -7 -6 -5 -5 -4 -3 -2 -1 -0 1 3 4
-3 -3 -4 -5 -6 -7 -8 -8 -9 -9 -9 -9 -9 -10 -10 -10 -11 -11 -11 -12 -12 -12 -12 -12 -11 -10 -10 -10 -10 -9 -8 -7 -6 -5 -5 -4 -3 -3 -2 -1 0 2 3
-3 -3 -4 -5 -6 -7 -7 -8 -9 -9 -9 -9 -9 -9 -10 -10 -10 -11 -11 -11 -12 -12 -12 -12 -11 -11 -10 -10 -10 -9 -9 -8 -7 -6 -5 -4 -4 -3 -2 -2 -1 1 2
-3 -3 -4 -5 -6 -7 -7 -8 -8 -9 -9 -9 -9 -9 -9 -10 -10 -11 -11 -11 -11 -11 -12 -12 -11 -11 -11 -11 -10 -10 -9 -8 -7 -6 -5 -4 -4 -3 -3 -2 -1 1 2
-3 -3 -4 -5 -5 -6 -7 -8 -8 -8 -8 -9 -9 -9 -9 -10 -10 -11 -11 -11 -11 -11 -11 -12 -12 -11 -11 -11 -11 -10 -9 -8 -7 -6 -5 -5 -4 -3 -3 -2 -1 0 2
-3 -3 -4 -5 -5 -6 -7 -7 -8 -8 -8 -8 -9 -9 -10 -10 -10 -10 -11 -11 -11 -11 -11 -11 -12 -12 -12 -11 -11 -11 -10 -9 -7 -6 -5 -5 -4 -3 -2 -1 -0 1 2
-3 -3 -4 -4 -5 -6 -6 -7 -8 -8 -8 -8 -9 -9 -10 -10 -10 -10 -10 -10 -10 -11 -11 -11 -12 -12 -12 -12 -12 -12 -11 -10 -8 -7 -6 -5 -4 -3 -2 -1 -0 1 2
-3 -3 -4 -4 -5 -5 -6 -7 -9 -8 -8 -9 -9 -9 -10 -10 -10 -10 -10 -10 -10 -10 -11 -12 -12 -12 -12 -12 -12 -12 -12 -11 -10 -7 -7 -5 -4 -3 -2 -1 0 1 2
-3 -3 -4 -4 -5 -5 -6 -8 -8 -8 -8 -9 -9 -10 -10 -10 -10 -10 -10 -10 -11 -11 -11 -12 -12 -12 -12 -12 -12 -12 -12 -11 -11 -9 -9 -5 -3 -3 -2 -1 0 1 2
-3 -3 -4 -4 -4 -5 -6 -7 -8 -9 -9 -9 -9 -10 -10 -10 -10 -10 -10 -10 -11 -11 -12 -12 -12 -12 -12 -12 -12 -12 -12 -11 -10 -9 -9 -7 -3 -2 -1 -1 0 1 2
-2 -3 -3 -4 -4 -5 -6 -7 -9 -9 -9 -9 -9 -10 -10 -10 -10 -10 -10 -11 -11 -11 -12 -12 -12 -12 -12 -12 -12 -12 -12 -12 -11 -9 -8 -8 -5 -3 -1 -0 1 2 3
-2 -3 -3 -4 -5 -5 -6 -7 -9 -9 -9 -9 -9 -10 -10 -10 -10 -10 -10 -11 -11 -11 -12 -12 -12 -12 -12 -12 -12 -12 -12 -12 -12 -11 -8 -8 -6 -5 -2 0 1 2 3
Wind_Speed
2 4 6 8 10 11 12 12 14 15 15 15 16 17 19 21 22 22 23 30 33 35 36 36 36 37 38 38 39 39 38 37 36 34 33 32 31 30 28 26 23 22 24
2 3 5 7 10 11 12 12 14 13 12 13 14 17 19 20 21 22 24 27 31 33 35 36 37 37 38 38 39 39 39 38 37 36 34 33 32 30 29 27 24 22 22
4 4 5 7 10 11 12 12 13 11 11 12 12 16 18 18 20 23 25 25 26 30 33 35 36 37 38 38 39 39 39 39 38 36 35 34 32 30 29 28 25 23 22
6 6 6 8 10 11 10 9 7 5 6 7 7 10 15 17 20 22 23 24 24 25 28 33 35 36 37 38 38 39 39 39 38 37 36 34 32 31 29 28 27 24 23
8 7 7 9 10 9 9 9 6 5 7 8 8 8 9 12 17 20 20 23 24 25 25 29 33 35 36 36 37 37 38 38 37 36 35 34 32 31 29 28 27 25 23
9 8 8 9 9 7 5 5 6 6 6 8 11 11 9 11 13 12 15 19 22 24 25 26 27 28 32 34 34 34 35 36 35 34 33 33 32 30 28 27 26 24 23
9 9 8 9 8 5 5 6 5 6 5 5 7 11 10 9 10 8 11 13 17 22 23 24 23 23 23 29 30 31 31 31 30 30 29 29 30 29 28 27 26 25 23
9 8 8 7 8 5 5 6 5 4 5 6 6 11 10 11 8 12 9 11 12 16 17 22 22 23 22 21 24 29 29 28 27 26 25 25 26 27 28 27 26 25 24
10 9 9 9 8 6 5 6 6 6 6 6 4 5 8 11 15 11 12 11 10 12 12 16 20 22 22 20 20 24 26 26 26 24 23 24 25 26 26 26 26 25 24
9 9 10 9 9 7 6 7 6 6 6 8 6 5 7 9 11 14 12 9 12 14 14 14 15 19 20 18 19 23 25 24 24 24 24 24 24 24 24 24 25 25 24
9 10 10 10 9 8 8 8 7 7 6 7 7 7 8 8 8 9 16 18 15 12 12 13 13 14 17 17 17 21 25 24 23 23 24 24 24 23 23 23 22 23 23
6 10 11 11 11 10 9 9 8 8 8 8 8 7 7 8 9 9 12 17 18 16 14 12 12 11 15 16 19 24 25 24 23 23 22 23 23 23 22 21 20 20 21
5 7 10 10 10 12 12 12 8 8 8 9 9 8 8 9 9 10 12 15 17 16 14 11 9 9 13 15 17 25 23 23 22 22 22 21 22 22 21 21 20 19 18
6 9 11 11 12 13 13 11 7 8 8 9 11 10 9 10 9 9 10 12 16 16 14 11 9 8 11 16 19 24 18 23 23 22 21 21 20 20 21 22 21 20 19
7 10 10 10 11 12 12 9 7 9 9 10 10 11 11 10 10 10 10 10 11 16 18 13 10 9 11 14 20 18 16 21 23 22 22 21 21 21 22 22 22 22 21
9 7 8 8 8 9 10 8 8 9 10 11 10 11 12 11 10 10 10 10 10 13 16 13 12 13 13 15 21 17 17 23 22 22 22 22 22 22 23 23 23 23 22
8 7 7 8 8 9 8 9 10 10 11 13 13 13 15 14 12 11 10 10 11 11 15 15 12 12 13 13 14 14 15 14 14 20 22 22 23 23 23 24 24 23 23
7 8 7 8 9 9 9 9 11 12 12 14 15 15 17 15 15 12 11 11 11 12 13 17 14 12 12 12 12 13 12 12 11 20 22 22 23 23 24 24 24 23 22
8 7 7 8 9 10 10 10 11 13 14 15 16 16 17 16 15 12 12 12 11 12 11 13 15 12 10 10 11 12 12 10 12 15 19 20 21 22 22 23 23 23 22
8 8 8 9 9 10 10 11 12 13 14 15 15 15 15 15 15 14 12 13 12 12 11 11 13 12 10 8 8 11 12 10 11 12 13 14 16 18 20 21 22 22 20
8 8 8 9 9 9 9 11 12 13 12 12 11 11 12 16 18 15 12 10 10 10 9 10 11 12 11 9 10 9 12 12 11 8 7 8 9 9 10 15 18 19 19
8 7 8 9 10 9 16 20 17 10 8 9 10 10 11 13 16 20 22 21 18 12 9 9 10 12 12 11 10 11 11 11 8 4 7 11 9 10 9 9 15 18 18
8 8 8 9 10 12 18 19 20 10 6 8 9 9 10 12 16 11 18 20 16 18 18 11 11 12 13 11 12 13 12 12 12 8 9 10 7 9 9 11 18 19 18
7 7 8 9 9 11 16 18 19 7 6 8 8 9 10 11 14 16 9 6 8 10 14 11 10 12 12 12 12 12 12 12 12 9 7 7 6 7 9 8 16 19 18
8 8 7 8 8 10 14 16 16 5 6 8 8 8 10 10 20 20 8 7 9 9 13 15 18 17 19 19 15 9 8 9 10 7 4 5 5 5 6 8 11 18 19
8 7 7 7 7 8 12 14 15 4 6 7 6 8 14 16 20 19 7 7 10 10 7 9 12 14 12 13 16 9 7 8 8 6 4 3 4 4 5 4 5 7 10
Wind_Direction
5 344 335 334 331 328 324 321 320 317 316 317 318 321 317 314 312 310 310 312 313 313 311 309 305 302 298 294 291 287 283 279 275 272 270 269 269 269 269 271 274 269 247
250 290 305 314 317 318 317 315 313 310 310 311 312 315 312 308 306 305 305 306 307 308 308 306 304 300 297 293 289 285 281 277 272 269 266 265 264 264 264 265 268 269 256
239 260 277 293 304 312 313 315 312 312 315 317 312 311 310 306 304 303 303 300 299 302 304 304 302 299 296 292 287 283 279 274 270 266 263 261 260 260 261 261 262 265 262
242 252 264 282 299 306 308 307 303 307 305 305 304 306 308 306 303 301 299 296 296 296 297 300 300 298 296 292 287 281 277 273 268 263 259 257 256 256 257 257 257 260 261
245 252 262 280 294 297 300 308 322 302 305 309 308 304 305 304 301 300 296 296 293 293 293 296 298 298 297 292 287 281 274 270 267 261 256 253 252 251 253 255 256 255 257
250 257 267 279 289 287 289 291 295 296 293 300 312 311 301 298 296 291 292 297 296 294 293 293 294 294 295 294 291 285 276 270 267 262 256 250 249 249 250 252 255 255 256
253 262 271 281 284 274 275 286 291 297 296 300 309 313 304 287 288 291 291 294 295 295 294 294 293 291 292 295 295 293 286 278 272 265 259 252 248 248 248 250 253 256 257
256 264 266 271 278 276 283 289 292 287 296 314 308 317 315 310 305 313 297 297 297 299 298 299 296 294 292 291 290 293 292 287 281 274 268 259 252 249 247 247 251 254 257
262 266 272 274 275 266 268 278 281 277 293 298 273 283 304 308 316 305 305 302 301 303 301 299 298 299 296 293 291 292 292 288 283 278 274 268 258 252 249 247 249 252 255
260 266 271 274 272 267 260 273 290 273 280 295 295 259 260 282 301 309 310 301 303 305 304 305 304 301 298 297 295 299 298 293 286 281 275 270 263 257 252 249 248 250 253
257 263 270 271 266 263 264 268 274 270 265 274 285 287 287 286 273 291 306 311 310 305 303 304 303 302 303 302 303 302 304 300 291 282 277 274 268 262 258 253 251 252 251
252 260 266 263 262 262 264 266 264 264 264 266 274 275 279 284 291 290 297 304 307 307 304 302 301 304 308 308 307 307 306 304 299 288 280 276 274 270 268 267 262 261 255
242 249 258 258 260 261 265 266 260 262 261 264 268 271 271 272 277 281 289 298 301 302 300 298 296 304 311 314 310 308 307 307 304 298 289 281 277 275 275 276 275 273 268
237 248 253 254 257 262 269 267 262 262 265 263 273 271 274 275 271 271 278 291 300 302 302 299 303 298 310 310 308 310 310 309 305 298 292 288 282 279 276 276 277 278 280
242 248 248 251 258 262 264 263 262 264 266 267 269 271 271 273 271 268 269 272 282 298 303 305 305 301 309 308 307 311 309 305 302 297 292 289 285 279 276 273 272 275 277
241 248 250 252 256 261 263 260 264 266 266 271 272 271 272 273 272 270 268 269 268 277 289 295 299 303 306 307 309 313 309 306 302 296 290 287 282 275 270 269 268 267 269
234 240 246 251 257 260 260 261 265 269 269 274 276 274 274 274 274 272 269 269 271 273 282 290 294 297 299 301 305 305 304 300 297 295 289 283 277 272 266 263 262 261 261
232 237 245 254 261 265 262 262 270 277 273 276 279 279 279 279 274 272 269 268 271 272 277 288 296 298 296 298 300 304 306 303 299 294 288 282 276 269 265 260 258 257 256
233 240 247 256 263 266 267 266 266 272 273 274 278 279 279 278 277 273 268 268 271 275 274 283 292 296 294 294 300 303 301 296 296 294 291 283 276 269 264 261 256 253 251
234 244 251 256 262 267 268 270 270 271 272 275 277 278 276 276 276 272 269 265 268 272 274 280 290 295 296 293 298 306 307 304 301 298 289 285 281 277 269 264 257 250 248
238 244 255 263 267 270 268 265 264 270 272 280 283 280 281 288 291 288 279 268 270 275 282 289 293 298 298 303 303 302 301 304 301 286 301 297 291 284 277 267 261 251 246
237 246 255 263 270 275 287 295 295 286 285 289 291 292 294 294 296 301 300 297 295 296 295 289 291 291 293 293 294 294 296 299 301 304 321 305 293 280 271 259 256 251 244
235 246 254 260 266 276 293 298 303 307 291 289 290 294 302 304 309 295 291 293 296 297 298 293 286 285 287 287 287 288 284 281 279 287 301 293 276 274 267 258 255 249 244
232 243 253 259 266 279 296 302 307 310 287 285 284 284 289 291 297 299 289 276 263 273 283 284 271 273 275 274 271 276 282 283 278 272 262 272 276 271 272 259 256 248 242
231 238 247 256 263 279 297 302 309 281 282 286 286 288 299 294 303 317 327 297 291 287 298 302 302 300 300 301 299 293 288 286 289 284 246 252 279 285 272 258 247 241 236
229 236 246 249 257 268 291 302 309 281 286 290 289 293 312 315 319 332 333 307 303 300 294 303 306 305 299 298 301 293 281 276 279 283 255 272 288 304 294 268 238 227 226
Height
1560 1557 1553 1549 1545 1541 1537 1534 1530 1527 1523 1520 1517 1513 1510 1507 1503 1499 1494 1490 1486 1481 1477 1474 1470 1468 1465 1463 1462 1461 1462 1462 1463 1464 1466 1467 1470 1473 1477 1481 1485 1489 1493
1556 1552 1549 1545 1541 1537 1533 1530 1526 1522 1519 1515 1512 1509 1505 1502 1498 1494 1489 1484 1479 1475 1470 1466 1462 1459 1456 1454 1452 1452 1452 1453 1454 1456 1457 1459 1461 1464 1468 1472 1476 1481 1485
1551 1548 1544 1541 1537 1533 1530 1526 1522 1519 1515 1511 1507 1504 1500 1497 1493 1488 1484 1479 1473 1468 1463 1458 1454 1450 1447 1444 1442 1441 1442 1443 1444 1446 1448 1450 1453 1455 1459 1463 1468 1472 1477
1547 1544 1540 1537 1533 1529 1526 1522 1518 1514 1510 1507 1502 1499 1495 1492 1487 1483 1478 1473 1467 1461 1456 1451 1446 1442 1438 1435 1432 1431 1432 1433 1435 1437 1439 1441 1444 1447 1450 1454 1459 1463 1468
1543 1540 1536 1533 1529 1525 1522 1518 1514 1510 1506 1502 1497 1493 1490 1486 1482 1477 1472 1467 1462 1456 1450 1444 1439 1434 1429 1425 1423 1422 1422 1423 1425 1427 1430 1433 1435 1438 1441 1445 1450 1455 1460
1539 1535 1532 1529 1525 1521 1518 1514 1510 1507 1503 1498 1493 1488 1484 1481 1476 1472 1467 1462 1456 1450 1444 1438 1431 1425 1420 1417 1414 1412 1412 1413 1415 1417 1420 1423 1426 1430 1433 1436 1441 1446 1451
1534 1531 1528 1524 1520 1517 1513 1510 1506 1502 1499 1495 1489 1482 1478 1475 1471 1466 1461 1456 1450 1445 1438 1432 1425 1419 1413 1409 1406 1404 1403 1404 1405 1407 1410 1414 1417 1421 1424 1428 1432 1437 1442
1530 1526 1523 1519 1516 1512 1509 1506 1502 1497 1494 1492 1487 1480 1472 1467 1464 1460 1455 1450 1444 1439 1433 1426 1420 1413 1408 1403 1399 1396 1395 1394 1395 1397 1400 1404 1408 1412 1416 1420 1423 1428 1434
1525 1522 1518 1515 1512 1508 1504 1501 1498 1494 1490 1487 1485 1482 1474 1464 1458 1451 1448 1443 1438 1433 1427 1421 1414 1408 1402 1397 1393 1390 1389 1388 1388 1389 1391 1395 1399 1403 1407 1412 1415 1420 1425
1521 1517 1514 1510 1507 1504 1500 1497 1493 1490 1486 1482 1479 1477 1473 1467 1459 1447 1440 1436 1432 1427 1422 1416 1409 1403 1397 1392 1388 1386 1384 1383 1382 1383 1385 1388 1392 1395 1400 1404 1408 1412 1417
1516 1513 1509 1506 1502 1499 1495 1492 1489 1485 1482 1478 1474 1470 1466 1462 1457 1450 1438 1429 1423 1419 1416 1410 1404 1398 1393 1388 1383 1381 1379 1377 1377 1378 1379 1381 1384 1388 1392 1397 1401 1405 1409
1511 1508 1504 1501 1497 1494 1490 1487 1483 1480 1476 1472 1469 1465 1460 1456 1451 1446 1437 1428 1419 1411 1408 1404 1400 1395 1389 1384 1380 1377 1375 1373 1372 1373 1374 1376 1378 1381 1384 1388 1393 1397 1402
1505 1502 1499 1495 1492 1488 1485 1481 1477 1474 1470 1466 1462 1458 1454 1450 1446 1441 1434 1425 1416 1407 1402 1398 1395 1390 1385 1380 1375 1373 1370 1369 1368 1368 1369 1370 1372 1373 1376 1379 1384 1388 1393
1499 1496 1493 1490 1486 1483 1479 1475 1471 1468 1464 1460 1456 1452 1448 1444 1440 1435 1430 1422 1412 1403 1397 1393 1389 1385 1380 1376 1371 1368 1365 1363 1363 1363 1364 1365 1366 1367 1370 1372 1375 1379 1384
1493 1490 1487 1484 1480 1477 1473 1470 1465 1462 1458 1454 1450 1445 1441 1436 1432 1428 1424 1419 1413 1402 1391 1387 1384 1379 1375 1371 1367 1363 1360 1358 1357 1357 1358 1359 1360 1362 1364 1367 1369 1372 1376
1487 1484 1481 1478 1475 1471 1467 1464 1459 1455 1452 1447 1443 1439 1434 1429 1425 1420 1416 1412 1407 1401 1390 1383 1379 1374 1370 1366 1362 1358 1354 1352 1351 1351 1352 1353 1355 1357 1359 1361 1363 1367 1370
1481 1478 1475 1472 1469 1465 1461 1457 1453 1449 1445 1441 1437 1432 1426 1422 1417 1412 1408 1405 1400 1396 1387 1379 1375 1370 1365 1360 1355 1352 1348 1346 1344 1344 1345 1347 1348 1350 1352 1355 1357 1360 1364
1475 1472 1469 1466 1462 1459 1455 1451 1447 1443 1439 1434 1430 1425 1419 1414 1409 1405 1401 1397 1393 1389 1383 1374 1368 1364 1359 1355 1350 1346 1342 1340 1338 1337 1338 1339 1341 1342 1345 1348 1351 1354 1358
1468 1466 1463 1460 1457 1453 1449 1445 1441 1437 1433 1428 1423 1418 1412 1406 1401 1397 1393 1390 1386 1382 1377 1371 1363 1358 1354 1350 1345 1340 1337 1334 1331 1330 1330 1331 1333 1335 1337 1340 1344 1347 1351
1462 1460 1457 1454 1451 1447 1443 1439 1435 1431 1426 1422 1417 1411 1406 1400 1395 1390 1386 1382 1379 1375 1370 1365 1359 1353 1348 1344 1340 1335 1330 1327 1325 1324 1323 1324 1325 1327 1330 1333 1336 1340 1344
1456 1454 1451 1448 1445 1441 1437 1432 1429 1425 1421 1416 1411 1406 1400 1394 1390 1385 1381 1377 1373 1369 1364 1359 1353 1348 1343 1339 1335 1331 1326 1321 1318 1317 1317 1317 1318 1319 1321 1325 1329 1333 1338
1450 1448 1446 1443 1439 1435 1431 1427 1425 1421 1416 1411 1405 1400 1394 1389 1384 1379 1375 1372 1368 1364 1358 1353 1348 1343 1338 1334 1330 1327 1323 1318 1314 1314 1311 1310 1311 1312 1314 1318 1322 1326 1331
1444 1442 1440 1437 1433 1430 1426 1422 1419 1416 1411 1406 1400 1394 1388 1383 1379 1373 1368 1365 1361 1358 1354 1349 1342 1337 1332 1329 1325 1321 1318 1315 1311 1308 1307 1302 1305 1305 1308 1311 1315 1320 1325
1437 1436 1434 1431 1428 1424 1420 1417 1414 1410 1405 1401 1395 1390 1384 1378 1374 1368 1363 1359 1355 1351 1346 1342 1337 1331 1327 1323 1320 1317 1313 1309 1305 1303 1303 1299 1298 1300 1302 1305 1309 1313 1318
1431 1430 1428 1425 1422 1419 1415 1412 1409 1404 1400 1395 1391 1385 1380 1375 1370 1366 1360 1354 1349 1345 1340 1336 1331 1325 1321 1317 1314 1311 1307 1305 1300 1297 1298 1296 1294 1295 1296 1298 1302 1307 1312
1425 1424 1422 1420 1417 1414 1410 1407 1404 1400 1395 1390 1385 1381 1376 1371 1367 1362 1356 1350 1345 1339 1334 1328 1323 1318 1314 1310 1307 1305 1302 1299 1297 1294 1293 1293 1292 1293 1293 1294 1298 1302 1307